Regional Weather Roundup
Issued by NWS

Home | Current Version | Previous Version | Graphics & Text | Print | Product List | Glossary On
Versions: 1 2 3 4 5 6 7 8 9 10 11 12 13 14 15 16 17 18 19 20 21 22 23 24 25 26 27 28 29 30 31 32 33 34 35 36 37 38 39 40 41 42 43 44 45 46 47 48 49 50
000
ASUS45 KTFX 080310
RWRMT
MONTANA REGIONAL WEATHER ROUNDUP
NATIONAL WEATHER SERVICE GREAT FALLS MT
800 PM MST SUN FEB 07 2016

NOTE: "FAIR" INDICATES FEW OR NO CLOUDS BELOW 12000 FEET WITH NO
SIGNIFICANT WEATHER AND/OR OBSTRUCTIONS TO VISIBILITY.

MTZ001>007-043-080400-
WEST OF THE DIVIDE

CITY           SKY/WX    TMP DP  RH WIND       PRES   REMARKS
KALISPELL      CLOUDY    34  27  75 CALM      30.61R
MISSOULA       CLOUDY    34  27  75 W3        30.62R
BUTTE          CLOUDY    26  18  71 NW3       30.52S
MULLAN PASS    CLOUDY    27  17  66 SW7       30.54R WCI  19
ANACONDA         N/A     28  18  64 CALM      30.54S
DEER LODGE       N/A     34  16  47 SE3       30.56R
HAMILTON         N/A     36  25  64 CALM      30.57S
LIBBY            N/A     34  28  80 CALM      30.63R
$$

MTZ008-052>055-080400-
SOUTHWEST MONTANA

CITY           SKY/WX    TMP DP  RH WIND       PRES   REMARKS
BOZEMAN        CLOUDY    30  22  72 CALM      30.51R
DILLON         CLOUDY    31  22  69 CALM      30.52R
ENNIS          CLOUDY    34  19  55 S10       30.56R WCI  26
$$

MTZ009-010-012-014-046-048-049-054-080400-
EAST SLOPES AND CENTRAL MONTANA

CITY           SKY/WX    TMP DP  RH WIND       PRES   REMARKS
CUT BANK       PTCLDY    32  17  54 W9        30.39S WCI  24
GREAT FALLS    CLOUDY    31  16  54 SW10      30.41F WCI  22
MALMSTROM AFB  CLOUDY    30  13  48 S5        30.43R
HELENA         CLOUDY    42  15  33 W7        30.48F
CHOTEAU          N/A     37  18  44 W8        30.41S WCI  31
$$

MTZ011-013-016-021-045-047-050-051-080400-
NORTH CENTRAL MONTANA

CITY           SKY/WX    TMP DP  RH WIND       PRES   REMARKS
HAVRE          CLEAR     23  16  74 CALM      30.45R
LEWISTOWN      CLEAR     25  12  58 S10       30.42R WCI  15
N BAR RANCH      N/A     23   9  54 CALM      30.43S
CHINOOK          N/A     25  14  63 CALM      30.46R
$$

MTZ017>020-022>027-061-062-080400-
NORTHEAST MONTANA

CITY           SKY/WX    TMP DP  RH WIND       PRES   REMARKS
GLASGOW        CLEAR     27  17  66 NW9       30.40R WCI  18
JORDAN           N/A     32  17  54 NW16      30.41F WCI  21
SIDNEY         CLEAR     30  16  55 NW15      30.33R WCI  19
WOLF POINT     CLEAR     32  18  56 NW15      30.38R WCI  22
PLENTYWOOD       N/A     27  19  74 NW14      30.31R WCI  15
POPLAR           N/A     28  18  64 NW14      30.37R WCI  17
$$

MTZ028>42-056>058-080400-
SOUTHCENTRAL AND SOUTHEAST MONTANA

CITY           SKY/WX    TMP DP  RH WIND       PRES   REMARKS
BAKER          CLEAR     29  13  51 NW20G28   30.31S WCI  16
BILLINGS       MOCLDY    33   9  36 N3        30.45S
LIVINGSTON     CLOUDY    37  14  38 NW13      30.45S WCI  29
MILES CITY     CLEAR     29  15  56 W10       30.41R WCI  20
FORSYTH          N/A     28  16  59 W6        30.44F WCI  22
LAUREL           N/A     34   9  35 CALM      30.39S
ROUNDUP          N/A     29   7  39 CALM      30.31F
$$

REGIONAL REPORTS...DAKOTAS

CITY           SKY/WX    TMP DP  RH WIND       PRES   REMARKS
WILLISTON      CLEAR     30  19  63 NW20G29   30.29R WCI  17
MINOT          PTCLDY    29  16  58 NW24G36   30.14R WCI  15
DICKINSON      CLEAR     28  13  53 NW28G37   30.21R WCI  13
BEACH            N/A     28  16  59 NW18      30.33R WCI  16
CROSBY           N/A     27  21  80 NW20      30.29R WCI  13
TIOGA            N/A     25  23  93 NW21G28   30.27S WCI  10
WATFORD CITY     N/A     28  18  64 NW17G25   30.28R WCI  16
BISMARCK       MOCLDY    33  19  56 N29G41    30.13R WCI  19
GRAND FORKS    LGT SNOW  15   7  70 N35G43    30.01R BLWGSNOWWCI  -7
FARGO          LGT SNOW  15  10  80 N30G38    30.00R VSB 1   WCI  -5
BUFFALO SD       N/A     29  14  53 NW25G33   30.22R WCI  14
RAPID CITY     CLEAR     32  10  40 NW32G40   30.25S WCI  17
$$

REGIONAL REPORTS...WYOMING/IDAHO/WASHINGTON

CITY           SKY/WX    TMP DP  RH WIND       PRES   REMARKS
GILLETTE       CLEAR     21  11  65 W14       30.38R WCI   8
SHERIDAN       PTCLDY    30  12  47 NW7       30.40S WCI  23
BUFFALO WY     CLOUDY    26  13  57 NW7       30.40R WCI  18
CODY           CLOUDY    30  12  47 SE3       30.41R
YELLOWSTONE LA   N/A     22  13  68 CALM      30.52S
IDAHO FALLS    FOG       22  21  96 N5        30.64F VSB 1/4
SALMON         CLOUDY    16  12  86 SE3       30.66R
BOISE          CLEAR     39  33  79 CALM      30.63R
SPOKANE        MOCLDY    38  32  79 NE5       30.62R
$$

REGIONAL REPORTS...ALBERTA

CITY           SKY/WX    TMP DP  RH WIND       PRES   REMARKS
EDMONTON       MOCLDY    28  16  59 SW6       30.35F WCI  22
CALGARY        PTCLDY    30  10  43 S5        30.34S
LETHBRIDGE     PTCLDY    37  19  48 W18G26    30.37F WCI  27
MEDICINE HAT   CLEAR     27  18  69 S2        30.42F
WATERTON GATE    N/A     37  18  44 SW26G37     N/A  WCI  26
MILK RIVER       N/A     23  14  68 SW3         N/A
ONEFOUR          N/A     25  16  68 NE5         N/A
$$

REGIONAL REPORTS...SASKATCHEWAN

CITY           SKY/WX    TMP DP  RH WIND       PRES   REMARKS
SWIFT CURRENT  CLEAR     25  18  74 W13       30.34S WCI  13
REGINA         CLEAR     25  19  80 NW16G22   30.28S WCI  12
SASKATOON      CLEAR     21  16  79 NW10      30.32S WCI  10
VAL MARIE        N/A     19  12  73 NW5         N/A
ROCKGLEN         N/A     27  16  63 NW17G25     N/A  WCI  14
ASSINIBOIA       N/A     16  10  79 SW5         N/A
$$



USA.gov is the U.S. government's official web portal to all federal, state and local government web resources and services.